Regional Weather Roundup
Issued by NWS

Home | Current Version | Previous Version | Graphics & Text | Print | Product List | Glossary On
Versions: 1 2 3 4 5 6 7 8 9 10 11 12 13 14 15 16 17 18 19 20 21 22 23 24 25 26 27 28 29 30 31 32 33 34 35 36 37 38 39 40 41 42 43 44 45 46 47 48 49 50
000
ASUS43 KLSX 250107
RWRMO
STLRWRMO ALL

WEATHER SUMMARY FOR MISSOURI
NATIONAL WEATHER SERVICE SPRINGFIELD MO
800 PM CDT MON APR 24 2017

NOTE: "FAIR" INDICATES FEW OR NO CLOUDS BELOW 12,000 FEET WITH NO
       SIGNIFICANT WEATHER AND/OR OBSTRUCTIONS TO VISIBILITY.
       CURRENT SKY AND/OR WEATHER CONDITIONS ARE NOT AVAILABLE FOR
       CHILLICOTHE AND FARMINGTON.

MOZ001>031-035>038-043-044-053-054-250200-
...NORTHERN AND WESTERN MISSOURI...

CITY           SKY/WX    TMP DP  RH WIND       PRES   REMARKS
KANSAS CTY INT PTCLDY    68  40  35 S17       29.60S
KANSAS C DTWN  CLEAR     71  38  29 S10       29.60S
LEE`S SUMMIT   PTCLDY    70  39  32 S10       29.62S
ST JOSEPH      CLEAR     70  43  37 S17G24    29.58S
CHILLICOTHE      N/A     72  30  21 S8        29.61S
KIRKSVILLE     CLEAR     62  32  32 SE7       29.64F

$$
MOZ066>068-077>081-088>096-101>105-250200-
...SOUTHWEST MISSOURI...

CITY           SKY/WX    TMP DP  RH WIND       PRES   REMARKS
SPRINGFIELD    CLEAR     67  36  31 SE12      29.65F
JOPLIN         CLEAR     65  42  43 S6        29.64S
BRANSON        PTCLDY    68  32  26 S7        29.70S

$$
MOZ032>034-039>042-045>050-055>058-069>072-250200-
...CENTRAL MISSOURI...

CITY           SKY/WX    TMP DP  RH WIND       PRES   REMARKS
COLUMBIA       CLEAR     68  33  27 SE8       29.65F
JEFFERSON CITY CLEAR     72  34  24 SE7       29.64F
ROLLA          CLEAR     66  34  30 SE9       29.67F
SEDALIA        CLOUDY    65  38  36 S9        29.64F
WHITEMAN AFB   PTCLDY    66  37  34 S7        29.61F
OSAGE BEACH    CLEAR     70  36  28 S6        29.66F

$$
MOZ051-052-059>065-250200-
...EAST CENTRAL MISSOURI...

CITY           SKY/WX    TMP DP  RH WIND       PRES   REMARKS
ST LOUIS INTL  PTCLDY    72  36  26 S12       29.72F
SPIRIT OF STL  PTCLDY    65  40  39 E5        29.69F
ST CHARLES     CLEAR     64  37  36 SE8       29.70S

$$
MOZ072>076-082>087-097>100-106>115-250200-
...SOUTH CENTRAL AND SOUTHEAST MISSOURI...

CITY           SKY/WX    TMP DP  RH WIND       PRES   REMARKS
CAPE GIRARDEAU CLEAR     64  54  69 S3        29.73S
FARMINGTON     CLEAR     64  43  46 E5        29.74F
POPLAR BLUFF   CLEAR     68  56  65 CALM      29.74S
WEST PLAINS    CLEAR     66  39  37 SE3       29.73S

$$




USA.gov is the U.S. government's official web portal to all federal, state and local government web resources and services.